Time,TemperatureF,DewpointF,PressureIn,WindDirection,WindDirectionDegrees,WindSpeedMPH,WindSpeedGustMPH,Humidity,HourlyPrecipIn,Conditions,Clouds,dailyrainin,SolarRadiationWatts/m^2,SoftwareType,DateUTC
2013-09-11 00:00:00,79.6,56.4,29.94,South,182,5.0,15.0,45,0.00,,---,0.00,0.00,VWS V14.01,2013-09-11 05:00:00,
2013-09-11 00:02:00,79.6,56.4,29.93,SSW,194,7.0,9.0,45,0.00,,---,0.00,0.00,VWS V14.01,2013-09-11 05:02:00,
2013-09-11 00:07:00,79.9,56.7,29.93,SSE,165,8.0,14.0,45,0.00,,---,0.00,0.00,VWS V14.01,2013-09-11 05:07:00,
2013-09-11 00:12:00,80.1,56.9,29.93,South,184,4.0,19.0,45,0.00,,---,0.00,0.00,VWS V14.01,2013-09-11 05:12:00,
2013-09-11 00:17:00,80.1,56.9,29.93,SSW,193,12.0,19.0,45,0.00,,---,0.00,0.00,VWS V14.01,2013-09-11 05:17:00,
2013-09-11 00:22:00,80.1,56.9,29.93,SSE,163,6.0,19.0,45,0.00,,---,0.00,0.00,VWS V14.01,2013-09-11 05:22:00,
2013-09-11 00:27:00,80.1,56.9,29.93,South,180,14.0,19.0,45,0.00,,---,0.00,0.00,VWS V14.01,2013-09-11 05:27:00,
2013-09-11 00:30:00,80.1,56.9,29.93,South,187,7.0,19.0,45,0.00,,---,0.00,0.00,VWS V14.01,2013-09-11 05:30:00,
2013-09-11 00:32:00,79.9,56.7,29.93,South,190,11.0,16.0,45,0.00,,---,0.00,0.00,VWS V14.01,2013-09-11 05:32:00,
2013-09-11 00:37:00,79.9,56.7,29.93,South,182,5.0,16.0,45,0.00,,---,0.00,0.00,VWS V14.01,2013-09-11 05:37:00,
2013-09-11 00:42:00,79.9,56.7,29.93,South,184,4.0,16.0,45,0.00,,---,0.00,0.00,VWS V14.01,2013-09-11 05:42:00,
2013-09-11 00:47:00,79.8,56.6,29.93,South,175,8.0,16.0,45,0.00,,---,0.00,0.00,VWS V14.01,2013-09-11 05:47:00,
2013-09-11 00:52:00,79.8,56.6,29.93,SSE,163,7.0,16.0,45,0.00,,---,0.00,0.00,VWS V14.01,2013-09-11 05:52:00,
2013-09-11 00:57:00,79.6,57.0,29.93,SSW,203,10.0,16.0,46,0.00,,---,0.00,0.00,VWS V14.01,2013-09-11 05:57:00,
2013-09-11 01:00:00,79.4,56.8,29.94,SSW,203,10.0,16.0,46,0.00,,---,0.00,0.00,VWS V14.01,2013-09-11 06:00:00,
2013-09-11 01:02:00,79.4,56.8,29.94,South,169,10.0,15.0,46,0.00,,---,0.00,0.00,VWS V14.01,2013-09-11 06:02:00,
2013-09-11 01:07:00,79.4,56.8,29.94,SW,214,7.0,16.0,46,0.00,,---,0.00,0.00,VWS V14.01,2013-09-11 06:07:00,
2013-09-11 01:12:00,79.2,57.2,29.94,South,169,7.0,16.0,47,0.00,,---,0.00,0.00,VWS V14.01,2013-09-11 06:12:00,
2013-09-11 01:17:00,79.0,57.1,29.94,SSW,202,5.0,16.0,47,0.00,,---,0.00,0.00,VWS V14.01,2013-09-11 06:17:00,
2013-09-11 01:22:00,78.8,56.9,29.94,SSW,196,12.0,16.0,47,0.00,,---,0.00,0.00,VWS V14.01,2013-09-11 06:22:00,
2013-09-11 01:27:00,78.8,57.5,29.94,South,182,7.0,16.0,48,0.00,,---,0.00,0.00,VWS V14.01,2013-09-11 06:27:00,
2013-09-11 01:30:00,78.8,57.5,29.94,SSW,198,3.0,16.0,48,0.00,,---,0.00,0.00,VWS V14.01,2013-09-11 06:30:00,
2013-09-11 01:32:00,78.6,57.3,29.94,SE,146,1.0,11.0,48,0.00,,---,0.00,0.00,VWS V14.01,2013-09-11 06:32:00,
2013-09-11 01:37:00,78.6,57.9,29.94,SSW,203,8.0,12.0,49,0.00,,---,0.00,0.00,VWS V14.01,2013-09-11 06:37:00,
2013-09-11 01:42:00,78.5,57.2,29.94,South,184,10.0,12.0,48,0.00,,---,0.00,0.00,VWS V14.01,2013-09-11 06:42:00,
2013-09-11 01:47:00,78.5,57.2,29.94,SSW,198,10.0,14.0,48,0.00,,---,0.00,0.00,VWS V14.01,2013-09-11 06:47:00,
2013-09-11 01:52:00,78.3,57.0,29.94,SSW,207,6.0,14.0,48,0.00,,---,0.00,0.00,VWS V14.01,2013-09-11 06:52:00,
2013-09-11 01:57:00,78.3,57.0,29.94,South,180,3.0,14.0,48,0.00,,---,0.00,0.00,VWS V14.01,2013-09-11 06:57:00,
2013-09-11 02:00:00,78.3,57.0,29.94,South,182,4.0,14.0,48,0.00,,---,0.00,0.00,VWS V14.01,2013-09-11 07:00:00,
2013-09-11 02:02:00,78.3,57.6,29.94,South,175,7.0,11.0,49,0.00,,---,0.00,0.00,VWS V14.01,2013-09-11 07:02:00,
2013-09-11 02:07:00,78.3,57.6,29.94,South,180,6.0,12.0,49,0.00,,---,0.00,0.00,VWS V14.01,2013-09-11 07:07:00,
2013-09-11 02:12:00,78.3,57.6,29.94,SSW,194,10.0,14.0,49,0.00,,---,0.00,0.00,VWS V14.01,2013-09-11 07:12:00,
2013-09-11 02:17:00,78.3,57.6,29.94,SSW,202,9.0,14.0,49,0.00,,---,0.00,0.00,VWS V14.01,2013-09-11 07:17:00,
2013-09-11 02:22:00,78.1,57.4,29.94,SSW,197,5.0,14.0,49,0.00,,---,0.00,0.00,VWS V14.01,2013-09-11 07:22:00,
2013-09-11 02:27:00,77.9,57.2,29.94,SSW,201,4.0,14.0,49,0.00,,---,0.00,0.00,VWS V14.01,2013-09-11 07:27:00,
2013-09-11 02:30:00,77.9,57.2,29.95,SSW,194,8.0,14.0,49,0.00,,---,0.00,0.00,VWS V14.01,2013-09-11 07:30:00,
2013-09-11 02:32:00,77.9,57.2,29.95,South,188,4.0,8.0,49,0.00,,---,0.00,0.00,VWS V14.01,2013-09-11 07:32:00,
2013-09-11 02:37:00,77.7,57.0,29.95,SSW,194,7.0,10.0,49,0.00,,---,0.00,0.00,VWS V14.01,2013-09-11 07:37:00,
2013-09-11 02:42:00,77.7,57.6,29.95,SSE,168,6.0,11.0,50,0.00,,---,0.00,0.00,VWS V14.01,2013-09-11 07:42:00,
2013-09-11 02:47:00,77.7,57.6,29.95,SSW,213,7.0,12.0,50,0.00,,---,0.00,0.00,VWS V14.01,2013-09-11 07:47:00,
2013-09-11 02:52:00,77.7,57.6,29.95,South,173,7.0,13.0,50,0.00,,---,0.00,0.00,VWS V14.01,2013-09-11 07:52:00,
2013-09-11 02:57:00,77.9,57.2,29.95,SSW,213,4.0,18.0,49,0.00,,---,0.00,0.00,VWS V14.01,2013-09-11 07:57:00,
2013-09-11 03:00:00,77.9,57.2,29.95,SSW,198,9.0,18.0,49,0.00,,---,0.00,0.00,VWS V14.01,2013-09-11 08:00:00,
2013-09-11 03:02:00,77.9,57.2,29.95,South,176,8.0,11.0,49,0.00,,---,0.00,0.00,VWS V14.01,2013-09-11 08:02:00,
2013-09-11 03:07:00,77.9,57.2,29.95,SSW,194,6.0,14.0,49,0.00,,---,0.00,0.00,VWS V14.01,2013-09-11 08:07:00,
2013-09-11 03:12:00,77.9,57.2,29.95,South,179,4.0,15.0,49,0.00,,---,0.00,0.00,VWS V14.01,2013-09-11 08:12:00,
2013-09-11 03:17:00,77.7,57.0,29.95,SSW,205,5.0,15.0,49,0.00,,---,0.00,0.00,VWS V14.01,2013-09-11 08:17:00,
2013-09-11 03:22:00,77.7,57.0,29.95,South,177,8.0,15.0,49,0.00,,---,0.00,0.00,VWS V14.01,2013-09-11 08:22:00,
2013-09-11 03:27:00,77.7,57.0,29.95,SSW,202,10.0,16.0,49,0.00,,---,0.00,0.00,VWS V14.01,2013-09-11 08:27:00,
2013-09-11 03:30:00,77.6,57.0,29.95,South,189,7.0,16.0,49,0.00,,---,0.00,0.00,VWS V14.01,2013-09-11 08:30:00,
2013-09-11 03:32:00,77.6,57.5,29.95,SW,217,6.0,12.0,50,0.00,,---,0.00,0.00,VWS V14.01,2013-09-11 08:32:00,
2013-09-11 03:37:00,77.6,57.5,29.95,South,184,8.0,15.0,50,0.00,,---,0.00,0.00,VWS V14.01,2013-09-11 08:37:00,
2013-09-11 03:42:00,77.4,57.3,29.95,SSW,198,6.0,15.0,50,0.00,,---,0.00,0.00,VWS V14.01,2013-09-11 08:42:00,
2013-09-11 03:47:00,77.4,57.3,29.95,South,177,6.0,15.0,50,0.00,,---,0.00,0.00,VWS V14.01,2013-09-11 08:47:00,
2013-09-11 03:52:00,77.2,57.1,29.95,South,173,10.0,15.0,50,0.00,,---,0.00,0.00,VWS V14.01,2013-09-11 08:52:00,
2013-09-11 03:57:00,77.2,57.1,29.95,SSW,198,8.0,15.0,50,0.00,,---,0.00,0.00,VWS V14.01,2013-09-11 08:57:00,
2013-09-11 04:00:00,77.2,57.1,29.95,South,187,5.0,16.0,50,0.00,,---,0.00,0.00,VWS V14.01,2013-09-11 09:00:00,
2013-09-11 04:02:00,77.0,57.5,29.95,SSW,203,9.0,13.0,51,0.00,,---,0.00,0.00,VWS V14.01,2013-09-11 09:02:00,
2013-09-11 04:07:00,77.0,57.5,29.95,SSW,208,6.0,15.0,51,0.00,,---,0.00,0.00,VWS V14.01,2013-09-11 09:07:00,
2013-09-11 04:12:00,76.8,57.3,29.95,SSW,209,10.0,15.0,51,0.00,,---,0.00,0.00,VWS V14.01,2013-09-11 09:12:00,
2013-09-11 04:17:00,76.7,57.2,29.95,South,190,8.0,16.0,51,0.00,,---,0.00,0.00,VWS V14.01,2013-09-11 09:17:00,
2013-09-11 04:22:00,76.7,57.8,29.95,SSW,205,6.0,16.0,52,0.00,,---,0.00,0.00,VWS V14.01,2013-09-11 09:22:00,
2013-09-11 04:27:00,76.5,57.6,29.95,SSW,203,9.0,16.0,52,0.00,,---,0.00,0.00,VWS V14.01,2013-09-11 09:27:00,
2013-09-11 04:30:00,76.5,57.6,29.95,SSW,202,13.0,16.0,52,0.00,,---,0.00,0.00,VWS V14.01,2013-09-11 09:30:00,
2013-09-11 04:32:00,76.3,57.4,29.95,SSW,198,6.0,14.0,52,0.00,,---,0.00,0.00,VWS V14.01,2013-09-11 09:32:00,
2013-09-11 04:37:00,76.1,57.2,29.95,SSW,194,11.0,14.0,52,0.00,,---,0.00,0.00,VWS V14.01,2013-09-11 09:37:00,
2013-09-11 04:42:00,76.0,57.7,29.95,SSE,168,2.0,14.0,53,0.00,,---,0.00,0.00,VWS V14.01,2013-09-11 09:42:00,
2013-09-11 04:47:00,75.8,57.5,29.95,South,189,5.0,14.0,53,0.00,,---,0.00,0.00,VWS V14.01,2013-09-11 09:47:00,
2013-09-11 04:52:00,75.8,57.5,29.95,SSW,207,3.0,16.0,53,0.00,,---,0.00,0.00,VWS V14.01,2013-09-11 09:52:00,
2013-09-11 04:57:00,75.6,57.8,29.95,South,186,7.0,16.0,54,0.00,,---,0.00,0.00,VWS V14.01,2013-09-11 09:57:00,
2013-09-11 05:00:00,75.6,57.8,29.95,SW,225,7.0,16.0,54,0.00,,---,0.00,0.00,VWS V14.01,2013-09-11 10:00:00,
2013-09-11 05:02:00,75.4,57.6,29.95,South,180,5.0,11.0,54,0.00,,---,0.00,0.00,VWS V14.01,2013-09-11 10:02:00,
2013-09-11 05:08:00,75.4,58.1,29.96,SSW,205,7.0,11.0,55,0.00,,---,0.00,0.00,VWS V14.01,2013-09-11 10:08:00,
2013-09-11 05:13:00,75.3,58.0,29.96,SW,216,6.0,11.0,55,0.00,,---,0.00,0.00,VWS V14.01,2013-09-11 10:13:00,
2013-09-11 05:18:00,75.1,57.8,29.96,SSW,196,8.0,11.0,55,0.00,,---,0.00,0.00,VWS V14.01,2013-09-11 10:18:00,
2013-09-11 05:23:00,74.9,57.7,29.96,South,179,5.0,11.0,55,0.00,,---,0.00,0.00,VWS V14.01,2013-09-11 10:23:00,
2013-09-11 05:28:00,74.7,58.0,29.96,South,181,3.0,11.0,56,0.00,,---,0.00,0.00,VWS V14.01,2013-09-11 10:28:00,
2013-09-11 05:30:00,74.7,58.0,29.96,South,189,6.0,11.0,56,0.00,,---,0.00,0.00,VWS V14.01,2013-09-11 10:30:00,
2013-09-11 05:33:00,74.7,58.0,29.96,South,175,4.0,7.0,56,0.00,,---,0.00,0.00,VWS V14.01,2013-09-11 10:33:00,
2013-09-11 05:38:00,74.6,57.9,29.96,SSW,211,1.0,10.0,56,0.00,,---,0.00,0.00,VWS V14.01,2013-09-11 10:38:00,
2013-09-11 05:43:00,74.4,58.2,29.96,South,186,7.0,11.0,57,0.00,,---,0.00,0.00,VWS V14.01,2013-09-11 10:43:00,
2013-09-11 05:48:00,74.2,58.0,29.96,SSW,209,3.0,11.0,57,0.00,,---,0.00,0.00,VWS V14.01,2013-09-11 10:48:00,
2013-09-11 05:53:00,74.0,58.3,29.96,South,179,7.0,11.0,58,0.00,,---,0.00,0.00,VWS V14.01,2013-09-11 10:53:00,
2013-09-11 05:58:00,73.9,58.2,29.96,SSW,213,4.0,11.0,58,0.00,,---,0.00,0.00,VWS V14.01,2013-09-11 10:58:00,
2013-09-11 06:00:00,73.9,58.2,29.96,South,182,4.0,11.0,58,0.00,,---,0.00,0.00,VWS V14.01,2013-09-11 11:00:00,
2013-09-11 06:03:00,73.9,58.2,29.96,SSW,199,3.0,6.0,58,0.00,,---,0.00,0.00,VWS V14.01,2013-09-11 11:03:00,
2013-09-11 06:08:00,73.7,58.0,29.96,SSW,199,0.0,6.0,58,0.00,,---,0.00,0.00,VWS V14.01,2013-09-11 11:08:00,
2013-09-11 06:13:00,73.7,58.0,29.96,SSW,199,3.0,6.0,58,0.00,,---,0.00,0.00,VWS V14.01,2013-09-11 11:13:00,
2013-09-11 06:18:00,73.7,58.0,29.97,SSW,199,1.0,6.0,58,0.00,,---,0.00,0.00,VWS V14.01,2013-09-11 11:18:00,
2013-09-11 06:23:00,73.7,58.5,29.97,SSW,199,3.0,6.0,59,0.00,,---,0.00,0.00,VWS V14.01,2013-09-11 11:23:00,
2013-09-11 06:28:00,73.7,58.5,29.97,South,169,4.0,6.0,59,0.00,,---,0.00,0.00,VWS V14.01,2013-09-11 11:28:00,
2013-09-11 06:30:00,73.7,58.5,29.97,SSW,213,3.0,7.0,59,0.00,,---,0.00,0.00,VWS V14.01,2013-09-11 11:30:00,
2013-09-11 06:33:00,73.5,58.3,29.97,SSW,213,3.0,4.0,59,0.00,,---,0.00,0.00,VWS V14.01,2013-09-11 11:33:00,
2013-09-11 06:38:00,73.5,58.3,29.98,SSW,213,1.0,4.0,59,0.00,,---,0.00,0.00,VWS V14.01,2013-09-11 11:38:00,
2013-09-11 06:43:00,73.5,58.3,29.98,SSW,213,5.0,5.0,59,0.00,,---,0.00,0.00,VWS V14.01,2013-09-11 11:43:00,
2013-09-11 06:48:00,73.3,58.6,29.98,SSW,213,3.0,5.0,60,0.00,,---,0.00,0.00,VWS V14.01,2013-09-11 11:48:00,
2013-09-11 06:53:00,73.2,58.5,29.97,SSW,213,5.0,6.0,60,0.00,,---,0.00,0.00,VWS V14.01,2013-09-11 11:53:00,
2013-09-11 06:58:00,73.2,58.5,29.98,SSW,195,5.0,7.0,60,0.00,,---,0.00,0.00,VWS V14.01,2013-09-11 11:58:00,
2013-09-11 07:00:00,73.2,58.5,29.98,SSW,195,2.0,7.0,60,0.00,,---,0.00,0.00,VWS V14.01,2013-09-11 12:00:00,
2013-09-11 07:03:00,73.2,58.5,29.98,SW,229,4.0,6.0,60,0.00,,---,0.00,0.00,VWS V14.01,2013-09-11 12:03:00,
2013-09-11 07:08:00,73.0,58.8,29.98,SW,229,3.0,6.0,61,0.00,,---,0.00,0.00,VWS V14.01,2013-09-11 12:08:00,
2013-09-11 07:13:00,73.0,58.8,29.98,SW,229,1.0,6.0,61,0.00,,---,0.00,5.00,VWS V14.01,2013-09-11 12:13:00,
2013-09-11 07:18:00,72.8,58.6,29.99,SW,229,3.0,6.0,61,0.00,,---,0.00,9.00,VWS V14.01,2013-09-11 12:18:00,
2013-09-11 07:23:00,72.8,58.6,29.99,SW,229,0.0,6.0,61,0.00,,---,0.00,14.00,VWS V14.01,2013-09-11 12:23:00,
2013-09-11 07:28:00,72.8,59.0,29.99,SW,229,1.0,6.0,62,0.00,,---,0.00,21.00,VWS V14.01,2013-09-11 12:28:00,
2013-09-11 07:30:00,72.8,59.0,29.99,SW,229,1.0,6.0,62,0.00,,---,0.00,23.00,VWS V14.01,2013-09-11 12:30:00,
2013-09-11 07:33:00,72.8,59.0,29.99,SW,229,0.0,2.0,62,0.00,,---,0.00,28.00,VWS V14.01,2013-09-11 12:33:00,
2013-09-11 07:38:00,72.8,59.0,29.99,SW,229,0.0,2.0,62,0.00,,---,0.00,35.00,VWS V14.01,2013-09-11 12:38:00,
2013-09-11 07:43:00,72.8,59.0,29.99,SW,229,0.0,2.0,62,0.00,,---,0.00,42.00,VWS V14.01,2013-09-11 12:43:00,
2013-09-11 07:48:00,73.0,59.2,29.99,SW,229,0.0,2.0,62,0.00,,---,0.00,42.00,VWS V14.01,2013-09-11 12:48:00,
2013-09-11 07:53:00,73.2,59.4,29.99,SW,229,0.0,2.0,62,0.00,,---,0.00,47.00,VWS V14.01,2013-09-11 12:53:00,
2013-09-11 07:58:00,73.2,59.4,30.00,SW,229,0.0,2.0,62,0.00,,---,0.00,47.00,VWS V14.01,2013-09-11 12:58:00,
2013-09-11 08:00:00,73.2,59.4,29.99,SW,229,0.0,2.0,62,0.00,,---,0.00,49.00,VWS V14.01,2013-09-11 13:00:00,
2013-09-11 08:03:00,73.3,59.5,30.00,SW,229,0.0,0.0,62,0.00,,---,0.00,46.00,VWS V14.01,2013-09-11 13:03:00,
2013-09-11 08:08:00,73.3,59.5,30.00,SW,229,0.0,1.0,62,0.00,,---,0.00,42.00,VWS V14.01,2013-09-11 13:08:00,
2013-09-11 08:13:00,73.3,59.5,29.99,SW,229,0.0,1.0,62,0.00,,---,0.00,54.00,VWS V14.01,2013-09-11 13:13:00,
2013-09-11 08:18:00,73.3,59.5,29.99,SW,229,0.0,1.0,62,0.00,,---,0.00,58.00,VWS V14.01,2013-09-11 13:18:00,
2013-09-11 08:23:00,73.5,59.7,29.99,SW,229,0.0,1.0,62,0.00,,---,0.00,179.00,VWS V14.01,2013-09-11 13:23:00,
2013-09-11 08:28:00,73.9,59.2,30.00,SW,229,0.0,1.0,60,0.00,,---,0.00,69.00,VWS V14.01,2013-09-11 13:28:00,
2013-09-11 08:30:00,74.0,59.7,30.00,SW,229,0.0,1.0,61,0.00,,---,0.00,100.00,VWS V14.01,2013-09-11 13:30:00,
2013-09-11 08:33:00,74.2,60.4,30.00,SW,229,1.0,3.0,62,0.00,,---,0.00,209.00,VWS V14.01,2013-09-11 13:33:00,
2013-09-11 08:38:00,74.4,60.1,30.00,SW,229,1.0,5.0,61,0.00,,---,0.00,239.00,VWS V14.01,2013-09-11 13:38:00,
2013-09-11 08:43:00,75.1,59.8,30.00,WSW,237,5.0,6.0,59,0.00,,---,0.00,267.00,VWS V14.01,2013-09-11 13:43:00,
2013-09-11 08:48:00,75.6,59.8,30.00,SW,229,2.0,6.0,58,0.00,,---,0.00,290.00,VWS V14.01,2013-09-11 13:48:00,
2013-09-11 08:53:00,76.0,59.7,30.00,SSW,199,0.0,8.0,57,0.00,,---,0.00,113.00,VWS V14.01,2013-09-11 13:53:00,
2013-09-11 08:58:00,76.3,60.5,30.00,SSW,199,2.0,8.0,58,0.00,,---,0.00,260.00,VWS V14.01,2013-09-11 13:58:00,
2013-09-11 09:00:00,76.3,60.5,30.00,SW,236,5.0,8.0,58,0.00,,---,0.00,299.00,VWS V14.01,2013-09-11 14:00:00,
2013-09-11 09:03:00,76.5,60.2,30.00,SW,221,5.0,6.0,57,0.00,,---,0.00,315.00,VWS V14.01,2013-09-11 14:03:00,
2013-09-11 09:08:00,76.8,59.9,30.00,SSW,205,10.0,12.0,56,0.00,,---,0.00,227.00,VWS V14.01,2013-09-11 14:08:00,
2013-09-11 09:13:00,76.7,60.3,30.00,SW,220,8.0,12.0,57,0.00,,---,0.00,118.00,VWS V14.01,2013-09-11 14:13:00,
2013-09-11 09:18:00,76.5,60.6,30.00,SSW,196,3.0,12.0,58,0.00,,---,0.00,123.00,VWS V14.01,2013-09-11 14:18:00,
2013-09-11 09:23:00,76.7,60.8,30.00,SW,219,6.0,12.0,58,0.00,,---,0.00,323.00,VWS V14.01,2013-09-11 14:23:00,
2013-09-11 09:28:00,77.0,60.6,30.00,SW,232,1.0,12.0,57,0.00,,---,0.00,417.00,VWS V14.01,2013-09-11 14:28:00,
2013-09-11 09:30:00,77.2,60.8,30.00,SSW,208,6.0,12.0,57,0.00,,---,0.00,408.00,VWS V14.01,2013-09-11 14:30:00,
2013-09-11 09:33:00,77.7,60.8,29.99,SW,219,6.0,6.0,56,0.00,,---,0.00,401.00,VWS V14.01,2013-09-11 14:33:00,
2013-09-11 09:38:00,78.5,61.0,29.99,WSW,241,6.0,9.0,55,0.00,,---,0.00,415.00,VWS V14.01,2013-09-11 14:38:00,
2013-09-11 09:43:00,78.6,61.1,30.00,SW,222,5.0,9.0,55,0.00,,---,0.00,329.00,VWS V14.01,2013-09-11 14:43:00,
2013-09-11 09:48:00,79.0,61.5,30.00,SW,232,2.0,9.0,55,0.00,,---,0.00,438.00,VWS V14.01,2013-09-11 14:48:00,
2013-09-11 09:53:00,79.6,61.5,30.00,SW,224,6.0,9.0,54,0.00,,---,0.00,459.00,VWS V14.01,2013-09-11 14:53:00,
2013-09-11 09:58:00,80.3,61.6,30.00,WSW,252,5.0,9.0,53,0.00,,---,0.00,473.00,VWS V14.01,2013-09-11 14:58:00,
2013-09-11 10:00:00,80.3,61.6,30.00,SW,214,4.0,9.0,53,0.00,,---,0.00,476.00,VWS V14.01,2013-09-11 15:00:00,
2013-09-11 10:03:00,80.7,62.0,30.00,SW,221,1.0,8.0,53,0.00,,---,0.00,455.00,VWS V14.01,2013-09-11 15:03:00,
2013-09-11 10:08:00,81.2,61.9,30.00,SSW,207,6.0,8.0,52,0.00,,---,0.00,397.00,VWS V14.01,2013-09-11 15:08:00,
2013-09-11 10:13:00,81.8,62.5,30.00,SW,224,5.0,10.0,52,0.00,,---,0.00,503.00,VWS V14.01,2013-09-11 15:13:00,
2013-09-11 10:18:00,82.0,62.7,30.00,SW,234,1.0,10.0,52,0.00,,---,0.00,343.00,VWS V14.01,2013-09-11 15:18:00,
2013-09-11 10:23:00,82.8,62.8,30.00,SW,230,5.0,11.0,51,0.00,,---,0.00,450.00,VWS V14.01,2013-09-11 15:23:00,
2013-09-11 10:28:00,83.2,63.2,30.00,SSW,195,4.0,11.0,51,0.00,,---,0.00,554.00,VWS V14.01,2013-09-11 15:28:00,
2013-09-11 10:30:00,83.4,62.8,30.00,SSW,204,9.0,11.0,50,0.00,,---,0.00,552.00,VWS V14.01,2013-09-11 15:30:00,
2013-09-11 10:33:00,83.6,63.0,30.00,WSW,240,3.0,9.0,50,0.00,,---,0.00,548.00,VWS V14.01,2013-09-11 15:33:00,
2013-09-11 10:38:00,84.1,62.9,30.00,SW,223,2.0,9.0,49,0.00,,---,0.00,554.00,VWS V14.01,2013-09-11 15:38:00,
2013-09-11 10:43:00,84.7,62.9,30.00,South,185,6.0,10.0,48,0.00,,---,0.00,566.00,VWS V14.01,2013-09-11 15:43:00,
2013-09-11 10:48:00,84.9,63.0,30.00,SSW,199,2.0,10.0,48,0.00,,---,0.00,577.00,VWS V14.01,2013-09-11 15:48:00,
2013-09-11 10:53:00,85.1,63.2,30.00,SSW,204,7.0,10.0,48,0.00,,---,0.00,591.00,VWS V14.01,2013-09-11 15:53:00,
2013-09-11 10:58:00,85.5,63.0,30.00,SW,214,8.0,11.0,47,0.00,,---,0.00,599.00,VWS V14.01,2013-09-11 15:58:00,
2013-09-11 11:00:00,85.7,63.8,30.00,SW,222,3.0,11.0,48,0.00,,---,0.00,606.00,VWS V14.01,2013-09-11 16:00:00,
2013-09-11 11:03:00,85.7,63.8,29.99,SW,236,1.0,9.0,48,0.00,,---,0.00,615.00,VWS V14.01,2013-09-11 16:03:00,
2013-09-11 11:08:00,86.3,63.1,30.00,WSW,241,7.0,10.0,46,0.00,,---,0.00,624.00,VWS V14.01,2013-09-11 16:08:00,
2013-09-11 11:13:00,86.5,63.9,29.99,SSW,198,2.0,10.0,47,0.00,,---,0.00,638.00,VWS V14.01,2013-09-11 16:13:00,
2013-09-11 11:18:00,87.0,64.3,29.99,SW,232,1.0,10.0,47,0.00,,---,0.00,643.00,VWS V14.01,2013-09-11 16:18:00,
2013-09-11 11:23:00,87.6,63.0,29.99,WSW,258,7.0,10.0,44,0.00,,---,0.00,652.00,VWS V14.01,2013-09-11 16:23:00,
2013-09-11 11:28:00,87.6,63.7,29.99,WSW,241,8.0,11.0,45,0.00,,---,0.00,661.00,VWS V14.01,2013-09-11 16:28:00,
2013-09-11 11:30:00,87.6,63.7,29.99,SW,224,7.0,11.0,45,0.00,,---,0.00,663.00,VWS V14.01,2013-09-11 16:30:00,
2013-09-11 11:33:00,87.6,63.7,29.99,SW,220,11.0,13.0,45,0.00,,---,0.00,668.00,VWS V14.01,2013-09-11 16:33:00,
2013-09-11 11:38:00,87.8,63.8,29.99,WSW,238,0.0,13.0,45,0.00,,---,0.00,675.00,VWS V14.01,2013-09-11 16:38:00,
2013-09-11 11:43:00,88.0,63.4,29.99,SSW,206,5.0,15.0,44,0.00,,---,0.00,687.00,VWS V14.01,2013-09-11 16:43:00,
2013-09-11 11:48:00,88.0,63.4,29.99,SSW,198,1.0,15.0,44,0.00,,---,0.00,694.00,VWS V14.01,2013-09-11 16:48:00,
2013-09-11 11:53:00,88.4,63.1,29.98,WSW,248,9.0,15.0,43,0.00,,---,0.00,707.00,VWS V14.01,2013-09-11 16:53:00,
2013-09-11 11:58:00,88.4,62.4,29.99,SW,223,0.0,15.0,42,0.00,,---,0.00,705.00,VWS V14.01,2013-09-11 16:58:00,
2013-09-11 12:00:00,88.4,62.4,29.98,SW,223,0.0,15.0,42,0.00,,---,0.00,719.00,VWS V14.01,2013-09-11 17:00:00,
2013-09-11 12:03:00,89.0,62.3,29.98,SSW,199,9.0,10.0,41,0.00,,---,0.00,724.00,VWS V14.01,2013-09-11 17:03:00,
2013-09-11 12:08:00,89.3,61.8,29.98,SW,223,12.0,16.0,40,0.00,,---,0.00,752.00,VWS V14.01,2013-09-11 17:08:00,
2013-09-11 12:13:00,89.5,62.7,29.98,SSW,207,8.0,16.0,41,0.00,,---,0.00,780.00,VWS V14.01,2013-09-11 17:13:00,
2013-09-11 12:18:00,89.7,61.5,29.98,West,276,1.0,16.0,39,0.00,,---,0.00,759.00,VWS V14.01,2013-09-11 17:18:00,
2013-09-11 12:23:00,89.7,61.5,29.98,SW,224,9.0,16.0,39,0.00,,---,0.00,766.00,VWS V14.01,2013-09-11 17:23:00,
2013-09-11 12:28:00,89.7,61.5,29.97,South,190,6.0,16.0,39,0.00,,---,0.00,802.00,VWS V14.01,2013-09-11 17:28:00,
2013-09-11 12:30:00,89.7,61.5,29.98,WSW,237,5.0,16.0,39,0.00,,---,0.00,805.00,VWS V14.01,2013-09-11 17:30:00,
2013-09-11 12:33:00,90.1,61.1,29.98,WSW,251,2.0,11.0,38,0.00,,---,0.00,802.00,VWS V14.01,2013-09-11 17:33:00,
2013-09-11 12:38:00,90.3,61.3,29.97,SW,215,7.0,14.0,38,0.00,,---,0.00,870.00,VWS V14.01,2013-09-11 17:38:00,
2013-09-11 12:43:00,90.7,61.6,29.98,SSW,200,5.0,14.0,38,0.00,,---,0.00,842.00,VWS V14.01,2013-09-11 17:43:00,
2013-09-11 12:48:00,90.7,61.6,29.97,WSW,252,10.0,17.0,38,0.00,,---,0.00,835.00,VWS V14.01,2013-09-11 17:48:00,
2013-09-11 12:53:00,90.5,61.5,29.97,SSW,203,8.0,17.0,38,0.00,,---,0.00,870.00,VWS V14.01,2013-09-11 17:53:00,
2013-09-11 12:58:00,90.7,61.6,29.97,South,175,7.0,17.0,38,0.00,,---,0.00,840.00,VWS V14.01,2013-09-11 17:58:00,
2013-09-11 13:00:00,91.0,61.1,29.97,SSW,203,8.0,17.0,37,0.00,,---,0.00,831.00,VWS V14.01,2013-09-11 18:00:00,
2013-09-11 13:03:00,91.2,62.1,29.97,West,265,2.0,16.0,38,0.00,,---,0.00,803.00,VWS V14.01,2013-09-11 18:03:00,
2013-09-11 13:08:00,91.6,60.1,29.97,West,266,3.0,16.0,35,0.00,,---,0.00,749.00,VWS V14.01,2013-09-11 18:08:00,
2013-09-11 13:13:00,91.6,62.4,29.97,SSE,162,7.0,16.0,38,0.00,,---,0.00,800.00,VWS V14.01,2013-09-11 18:13:00,
2013-09-11 13:18:00,91.0,61.1,29.97,SSW,213,7.0,16.0,37,0.00,,---,0.00,155.00,VWS V14.01,2013-09-11 18:18:00,
2013-09-11 13:23:00,90.5,61.5,29.97,WSW,245,5.0,16.0,38,0.00,,---,0.00,842.00,VWS V14.01,2013-09-11 18:23:00,
2013-09-11 13:28:00,91.0,61.9,29.96,WSW,253,2.0,16.0,38,0.00,,---,0.00,795.00,VWS V14.01,2013-09-11 18:28:00,
2013-09-11 13:30:00,91.2,61.3,29.96,SW,227,4.0,16.0,37,0.00,,---,0.00,849.00,VWS V14.01,2013-09-11 18:30:00,
2013-09-11 13:34:00,92.1,62.1,29.96,SSW,196,5.0,8.0,37,0.00,,---,0.00,814.00,VWS V14.01,2013-09-11 18:34:00,
2013-09-11 13:39:00,91.6,61.7,29.96,WSW,251,0.0,14.0,37,0.00,,---,0.00,216.00,VWS V14.01,2013-09-11 18:39:00,
2013-09-11 13:44:00,92.1,61.3,29.96,SSW,202,4.0,14.0,36,0.00,,---,0.00,868.00,VWS V14.01,2013-09-11 18:44:00,
2013-09-11 13:49:00,92.1,61.3,29.96,SSW,213,8.0,14.0,36,0.00,,---,0.00,670.00,VWS V14.01,2013-09-11 18:49:00,
2013-09-11 13:54:00,92.1,61.3,29.96,South,188,12.0,19.0,36,0.00,,---,0.00,169.00,VWS V14.01,2013-09-11 18:54:00,
2013-09-11 13:59:00,92.1,59.7,29.95,South,183,10.0,19.0,34,0.00,,---,0.00,167.00,VWS V14.01,2013-09-11 18:59:00,
2013-09-11 14:00:00,92.1,60.5,29.95,SW,225,11.0,19.0,35,0.00,,---,0.00,165.00,VWS V14.01,2013-09-11 19:00:00,
2013-09-11 14:04:00,91.8,61.8,29.95,South,177,17.0,20.0,37,0.00,,---,0.00,134.00,VWS V14.01,2013-09-11 19:04:00,
2013-09-11 14:09:00,91.0,61.1,29.95,SW,232,4.0,20.0,37,0.00,,---,0.00,121.00,VWS V14.01,2013-09-11 19:09:00,
2013-09-11 14:14:00,90.7,60.9,29.95,SSW,211,5.0,20.0,37,0.00,,---,0.00,146.00,VWS V14.01,2013-09-11 19:14:00,
2013-09-11 14:19:00,90.1,61.1,29.95,SW,219,5.0,20.0,38,0.00,,---,0.00,146.00,VWS V14.01,2013-09-11 19:19:00,
2013-09-11 14:24:00,90.3,61.3,29.95,SSW,211,3.0,20.0,38,0.00,,---,0.00,202.00,VWS V14.01,2013-09-11 19:24:00,
2013-09-11 14:29:00,91.4,62.2,29.94,SSW,205,11.0,20.0,38,0.00,,---,0.00,257.00,VWS V14.01,2013-09-11 19:29:00,
2013-09-11 14:30:00,91.4,62.2,29.94,SSW,205,13.0,20.0,38,0.00,,---,0.00,253.00,VWS V14.01,2013-09-11 19:30:00,
2013-09-11 14:34:00,91.6,62.4,29.94,SW,229,7.0,13.0,38,0.00,,---,0.00,221.00,VWS V14.01,2013-09-11 19:34:00,
2013-09-11 14:39:00,91.8,60.3,29.94,SW,217,3.0,14.0,35,0.00,,---,0.00,206.00,VWS V14.01,2013-09-11 19:39:00,
2013-09-11 14:44:00,91.8,61.1,29.94,SSE,151,6.0,14.0,36,0.00,,---,0.00,162.00,VWS V14.01,2013-09-11 19:44:00,
2013-09-11 14:49:00,91.8,61.1,29.94,West,277,3.0,14.0,36,0.00,,---,0.00,135.00,VWS V14.01,2013-09-11 19:49:00,
2013-09-11 14:54:00,91.4,60.7,29.94,WSW,237,6.0,14.0,36,0.00,,---,0.00,155.00,VWS V14.01,2013-09-11 19:54:00,
2013-09-11 14:59:00,92.1,61.3,29.93,SW,227,1.0,14.0,36,0.00,,---,0.00,188.00,VWS V14.01,2013-09-11 19:59:00,
2013-09-11 15:00:00,92.1,60.5,29.93,SSE,156,6.0,14.0,35,0.00,,---,0.00,188.00,VWS V14.01,2013-09-11 20:00:00,
2013-09-11 15:04:00,91.8,61.1,29.93,SSW,201,6.0,9.0,36,0.00,,---,0.00,213.00,VWS V14.01,2013-09-11 20:04:00,
2013-09-11 15:09:00,91.6,60.1,29.93,SSE,153,4.0,9.0,35,0.00,,---,0.00,183.00,VWS V14.01,2013-09-11 20:09:00,
2013-09-11 15:14:00,91.2,61.3,29.93,SSE,147,4.0,9.0,37,0.00,,---,0.00,218.00,VWS V14.01,2013-09-11 20:14:00,
2013-09-11 15:19:00,91.0,61.9,29.92,ESE,111,5.0,9.0,38,0.00,,---,0.00,181.00,VWS V14.01,2013-09-11 20:19:00,
2013-09-11 15:24:00,91.0,62.6,29.92,ESE,111,0.0,9.0,39,0.00,,---,0.00,144.00,VWS V14.01,2013-09-11 20:24:00,
2013-09-11 15:29:00,90.5,65.0,29.92,East,86,5.0,9.0,43,0.00,,---,0.00,142.00,VWS V14.01,2013-09-11 20:29:00,
2013-09-11 15:30:00,90.3,64.1,29.92,East,84,4.0,9.0,42,0.00,,---,0.00,144.00,VWS V14.01,2013-09-11 20:30:00,
2013-09-11 15:34:00,88.8,62.8,29.92,NE,46,4.0,7.0,42,0.00,,---,0.00,160.00,VWS V14.01,2013-09-11 20:34:00,
2013-09-11 15:39:00,88.6,65.2,29.92,NE,46,1.0,7.0,46,0.00,,---,0.00,211.00,VWS V14.01,2013-09-11 20:39:00,
2013-09-11 15:44:00,89.7,63.6,29.92,SW,235,0.0,8.0,42,0.00,,---,0.00,246.00,VWS V14.01,2013-09-11 20:44:00,
2013-09-11 15:49:00,92.3,60.7,29.92,SW,219,11.0,11.0,35,0.00,,---,0.00,241.00,VWS V14.01,2013-09-11 20:49:00,
2013-09-11 15:54:00,92.9,59.6,29.92,WSW,237,10.0,14.0,33,0.00,,---,0.00,237.00,VWS V14.01,2013-09-11 20:54:00,
2013-09-11 15:59:00,91.0,61.1,29.92,WSW,246,10.0,20.0,37,0.00,,---,0.00,162.00,VWS V14.01,2013-09-11 20:59:00,
2013-09-11 16:00:00,90.7,61.6,29.92,WSW,239,12.0,20.0,38,0.00,,---,0.00,162.00,VWS V14.01,2013-09-11 21:00:00,
2013-09-11 16:04:00,89.9,61.7,29.92,SSW,194,8.0,13.0,39,0.00,,---,0.00,141.00,VWS V14.01,2013-09-11 21:04:00,
2013-09-11 16:09:00,89.5,62.0,29.92,SSW,205,11.0,16.0,40,0.00,,---,0.00,142.00,VWS V14.01,2013-09-11 21:09:00,
2013-09-11 16:14:00,88.6,62.6,29.92,SSW,200,7.0,17.0,42,0.00,,---,0.00,130.00,VWS V14.01,2013-09-11 21:14:00,
2013-09-11 16:19:00,88.2,62.9,29.92,South,188,8.0,17.0,43,0.00,,---,0.00,118.00,VWS V14.01,2013-09-11 21:19:00,
2013-09-11 16:24:00,87.4,65.3,29.91,WSW,251,12.0,17.0,48,0.00,,---,0.00,113.00,VWS V14.01,2013-09-11 21:24:00,
2013-09-11 16:29:00,83.8,65.9,29.91,SW,236,5.0,17.0,55,0.00,,---,0.00,109.00,VWS V14.01,2013-09-11 21:29:00,
2013-09-11 16:30:00,83.8,65.9,29.91,SW,215,5.0,17.0,55,0.00,,---,0.00,109.00,VWS V14.01,2013-09-11 21:30:00,
2013-09-11 16:34:00,82.8,65.5,29.91,SW,235,4.0,6.0,56,0.00,,---,0.00,109.00,VWS V14.01,2013-09-11 21:34:00,
2013-09-11 16:39:00,83.0,66.2,29.90,SW,235,1.0,6.0,57,0.00,,---,0.00,127.00,VWS V14.01,2013-09-11 21:39:00,
2013-09-11 16:44:00,83.8,65.9,29.90,SW,235,2.0,6.0,55,0.00,,---,0.00,148.00,VWS V14.01,2013-09-11 21:44:00,
2013-09-11 16:49:00,84.7,66.2,29.90,SW,235,0.0,6.0,54,0.00,,---,0.00,223.00,VWS V14.01,2013-09-11 21:49:00,
2013-09-11 16:54:00,85.1,66.6,29.90,SW,235,0.0,6.0,54,0.00,,---,0.00,214.00,VWS V14.01,2013-09-11 21:54:00,
2013-09-11 16:59:00,85.7,65.5,29.90,East,99,2.0,6.0,51,0.00,,---,0.00,186.00,VWS V14.01,2013-09-11 21:59:00,
2013-09-11 17:00:00,85.7,66.6,29.90,East,99,5.0,6.0,53,0.00,,---,0.00,186.00,VWS V14.01,2013-09-11 22:00:00,
2013-09-11 17:04:00,85.9,65.1,29.90,East,99,2.0,6.0,50,0.00,,---,0.00,185.00,VWS V14.01,2013-09-11 22:04:00,
2013-09-11 17:09:00,86.3,64.9,29.89,East,99,0.0,6.0,49,0.00,,---,0.00,176.00,VWS V14.01,2013-09-11 22:09:00,
2013-09-11 17:14:00,86.5,64.5,29.89,East,99,2.0,6.0,48,0.00,,---,0.00,167.00,VWS V14.01,2013-09-11 22:14:00,
2013-09-11 17:19:00,87.0,65.6,29.89,East,99,0.0,6.0,49,0.00,,---,0.00,158.00,VWS V14.01,2013-09-11 22:19:00,
2013-09-11 17:24:00,87.4,64.7,29.89,East,99,1.0,6.0,47,0.00,,---,0.00,135.00,VWS V14.01,2013-09-11 22:24:00,
2013-09-11 17:29:00,87.6,63.7,29.89,East,99,2.0,6.0,45,0.00,,---,0.00,120.00,VWS V14.01,2013-09-11 22:29:00,
2013-09-11 17:30:00,87.6,63.7,29.89,East,99,2.0,6.0,45,0.00,,---,0.00,120.00,VWS V14.01,2013-09-11 22:30:00,
2013-09-11 17:34:00,87.6,64.9,29.89,East,99,2.0,4.0,47,0.00,,---,0.00,102.00,VWS V14.01,2013-09-11 22:34:00,
2013-09-11 17:39:00,87.8,64.5,29.89,East,99,0.0,4.0,46,0.00,,---,0.00,93.00,VWS V14.01,2013-09-11 22:39:00,
2013-09-11 17:44:00,87.8,64.5,29.89,East,99,0.0,4.0,46,0.00,,---,0.00,84.00,VWS V14.01,2013-09-11 22:44:00,
2013-09-11 17:49:00,88.0,65.3,29.90,East,99,1.0,4.0,47,0.00,,---,0.00,74.00,VWS V14.01,2013-09-11 22:49:00,
2013-09-11 17:54:00,88.0,64.7,29.90,East,99,1.0,4.0,46,0.00,,---,0.00,65.00,VWS V14.01,2013-09-11 22:54:00,
2013-09-11 17:59:00,87.8,63.8,29.90,East,99,1.0,4.0,45,0.00,,---,0.00,56.00,VWS V14.01,2013-09-11 22:59:00,
2013-09-11 18:00:00,87.8,63.8,29.90,East,99,0.0,4.0,45,0.00,,---,0.00,56.00,VWS V14.01,2013-09-11 23:00:00,
2013-09-11 18:04:00,87.8,63.8,29.90,East,99,2.0,4.0,45,0.00,,---,0.00,47.00,VWS V14.01,2013-09-11 23:04:00,
2013-09-11 18:09:00,87.8,64.5,29.91,East,99,1.0,4.0,46,0.00,,---,0.00,40.00,VWS V14.01,2013-09-11 23:09:00,
2013-09-11 18:14:00,87.8,65.7,29.91,East,99,0.0,4.0,48,0.00,,---,0.00,35.00,VWS V14.01,2013-09-11 23:14:00,
2013-09-11 18:19:00,87.4,64.7,29.91,East,99,1.0,4.0,47,0.00,,---,0.00,30.00,VWS V14.01,2013-09-11 23:19:00,
2013-09-11 18:24:00,87.2,65.1,29.91,East,99,2.0,4.0,48,0.00,,---,0.00,26.00,VWS V14.01,2013-09-11 23:24:00,
2013-09-11 18:29:00,87.0,65.6,29.90,East,99,4.0,4.0,49,0.00,,---,0.00,23.00,VWS V14.01,2013-09-11 23:29:00,
2013-09-11 18:30:00,87.0,65.6,29.90,East,99,4.0,4.0,49,0.00,,---,0.00,23.00,VWS V14.01,2013-09-11 23:30:00,
2013-09-11 18:34:00,86.7,66.4,29.90,East,99,2.0,4.0,51,0.00,,---,0.00,21.00,VWS V14.01,2013-09-11 23:34:00,
2013-09-11 18:39:00,86.3,66.1,29.90,East,99,2.0,5.0,51,0.00,,---,0.00,21.00,VWS V14.01,2013-09-11 23:39:00,
2013-09-11 18:44:00,86.1,66.4,29.90,East,99,2.0,5.0,52,0.00,,---,0.00,23.00,VWS V14.01,2013-09-11 23:44:00,
2013-09-11 18:49:00,85.7,66.6,29.90,East,99,2.0,5.0,53,0.00,,---,0.00,21.00,VWS V14.01,2013-09-11 23:49:00,
2013-09-11 18:54:00,85.3,67.3,29.90,East,98,4.0,5.0,55,0.00,,---,0.00,21.00,VWS V14.01,2013-09-11 23:54:00,
2013-09-11 18:59:00,85.1,67.1,29.90,East,98,0.0,5.0,55,0.00,,---,0.00,21.00,VWS V14.01,2013-09-11 23:59:00,
2013-09-11 19:00:00,84.9,66.9,29.90,East,98,1.0,5.0,55,0.00,,---,0.00,21.00,VWS V14.01,2013-09-12 00:00:00,
2013-09-11 19:04:00,84.9,67.5,29.91,East,98,0.0,4.0,56,0.00,,---,0.00,14.00,VWS V14.01,2013-09-12 00:04:00,
2013-09-11 19:09:00,84.7,65.1,29.92,SW,217,10.0,12.0,52,0.00,,---,0.00,9.00,VWS V14.01,2013-09-12 00:09:00,
2013-09-11 19:14:00,84.0,65.1,29.92,WSW,245,12.0,17.0,53,0.00,,---,0.00,5.00,VWS V14.01,2013-09-12 00:14:00,
2013-09-11 19:19:00,82.2,64.4,29.92,West,275,8.0,22.0,55,0.01,,---,0.01,5.00,VWS V14.01,2013-09-12 00:19:00,
2013-09-11 19:24:00,80.5,63.9,29.92,WNW,284,18.0,22.0,57,0.01,,---,0.01,0.00,VWS V14.01,2013-09-12 00:24:00,
2013-09-11 19:29:00,79.9,63.3,29.92,WNW,292,10.0,22.0,57,0.01,,---,0.01,0.00,VWS V14.01,2013-09-12 00:29:00,
2013-09-11 19:30:00,80.1,63.5,29.92,WNW,284,9.0,22.0,57,0.01,,---,0.01,0.00,VWS V14.01,2013-09-12 00:30:00,
2013-09-11 19:34:00,80.3,62.2,29.92,WNW,297,16.0,20.0,54,0.01,,---,0.01,0.00,VWS V14.01,2013-09-12 00:34:00,
2013-09-11 19:39:00,80.5,63.4,29.92,WNW,290,10.0,20.0,56,0.01,,---,0.01,0.00,VWS V14.01,2013-09-12 00:39:00,
2013-09-11 19:44:00,79.9,64.3,29.93,NW,325,25.0,25.0,59,0.01,,---,0.01,0.00,VWS V14.01,2013-09-12 00:44:00,
2013-09-11 19:49:00,78.6,65.0,29.93,NNW,345,25.0,26.0,63,0.01,,---,0.01,0.00,VWS V14.01,2013-09-12 00:49:00,
2013-09-11 19:54:00,78.5,65.3,29.93,North,5,12.0,26.0,64,0.01,,---,0.01,0.00,VWS V14.01,2013-09-12 00:54:00,
2013-09-11 19:59:00,78.1,65.8,29.94,North,349,13.0,26.0,66,0.01,,---,0.01,0.00,VWS V14.01,2013-09-12 00:59:00,
2013-09-11 20:00:00,77.9,66.1,29.94,NNW,345,19.0,26.0,67,0.01,,---,0.01,0.00,VWS V14.01,2013-09-12 01:00:00,
2013-09-11 20:04:00,76.1,66.8,29.96,NE,54,13.0,29.0,73,0.01,,---,0.01,0.00,VWS V14.01,2013-09-12 01:04:00,
2013-09-11 20:09:00,75.1,67.0,29.98,NNE,17,16.0,29.0,76,0.01,,---,0.01,0.00,VWS V14.01,2013-09-12 01:09:00,
2013-09-11 20:14:00,74.9,66.1,29.99,ENE,71,6.0,29.0,74,0.01,,---,0.01,0.00,VWS V14.01,2013-09-12 01:14:00,
2013-09-11 20:19:00,73.5,67.7,29.98,NNE,14,17.0,29.0,82,0.01,,---,0.01,0.00,VWS V14.01,2013-09-12 01:19:00,
2013-09-11 20:24:00,72.8,67.7,29.98,North,5,20.0,29.0,84,0.01,,---,0.01,0.00,VWS V14.01,2013-09-12 01:24:00,
2013-09-11 20:29:00,72.1,68.0,29.98,NNW,344,12.0,29.0,87,0.02,,---,0.02,0.00,VWS V14.01,2013-09-12 01:29:00,
2013-09-11 20:30:00,72.1,68.0,29.98,NNW,345,20.0,29.0,87,0.02,,---,0.02,0.00,VWS V14.01,2013-09-12 01:30:00,
2013-09-11 20:34:00,72.3,68.2,29.98,NNW,340,9.0,22.0,87,0.01,,---,0.02,0.00,VWS V14.01,2013-09-12 01:34:00,
2013-09-11 20:39:00,72.5,68.8,29.99,NNW,347,9.0,22.0,88,0.01,,---,0.02,0.00,VWS V14.01,2013-09-12 01:39:00,
2013-09-11 20:44:00,72.5,68.8,29.99,North,9,7.0,22.0,88,0.01,,---,0.02,0.00,VWS V14.01,2013-09-12 01:44:00,
2013-09-11 20:49:00,72.3,68.6,29.98,NNE,13,10.0,22.0,88,0.01,,---,0.02,0.00,VWS V14.01,2013-09-12 01:49:00,
2013-09-11 20:54:00,72.3,68.6,29.98,North,5,10.0,22.0,88,0.02,,---,0.03,0.00,VWS V14.01,2013-09-12 01:54:00,
2013-09-11 20:59:00,72.3,68.2,29.99,NNW,339,12.0,22.0,87,0.02,,---,0.03,0.00,VWS V14.01,2013-09-12 01:59:00,
2013-09-11 21:00:00,72.3,68.2,29.99,NNW,344,13.0,22.0,87,0.02,,---,0.03,0.00,VWS V14.01,2013-09-12 02:00:00,
2013-09-11 21:04:00,72.3,68.6,30.00,North,355,5.0,14.0,88,0.02,,---,0.03,0.00,VWS V14.01,2013-09-12 02:04:00,
2013-09-11 21:09:00,72.3,68.2,30.00,NNW,330,8.0,14.0,87,0.02,,---,0.03,0.00,VWS V14.01,2013-09-12 02:09:00,
2013-09-11 21:14:00,72.3,67.9,30.00,North,355,9.0,14.0,86,0.03,,---,0.04,0.00,VWS V14.01,2013-09-12 02:14:00,
2013-09-11 21:19:00,72.1,67.7,30.00,North,9,6.0,14.0,86,0.03,,---,0.04,0.00,VWS V14.01,2013-09-12 02:19:00,
2013-09-11 21:24:00,71.8,67.4,30.01,NNE,25,8.0,14.0,86,0.03,,---,0.04,0.00,VWS V14.01,2013-09-12 02:24:00,
2013-09-11 21:29:00,71.6,67.2,30.01,NNE,22,4.0,4.0,86,0.02,,---,0.04,0.00,VWS V14.01,2013-09-12 02:29:00,
2013-09-11 21:30:00,71.6,67.2,30.01,NNE,13,4.0,15.0,86,0.03,,---,0.04,0.00,VWS V14.01,2013-09-12 02:30:00,
2013-09-11 21:34:00,71.6,67.5,30.02,NNE,15,7.0,8.0,87,0.03,,---,0.05,0.00,VWS V14.01,2013-09-12 02:34:00,
2013-09-11 21:39:00,71.6,67.5,30.03,NNW,338,8.0,9.0,87,0.03,,---,0.05,0.00,VWS V14.01,2013-09-12 02:39:00,
2013-09-11 21:44:00,71.8,68.4,30.02,NNE,15,7.0,10.0,89,0.03,,---,0.05,0.00,VWS V14.01,2013-09-12 02:44:00,
2013-09-11 21:49:00,71.8,68.4,30.02,North,355,9.0,11.0,89,0.03,,---,0.05,0.00,VWS V14.01,2013-09-12 02:49:00,
2013-09-11 21:54:00,72.0,68.6,30.02,NNW,343,9.0,12.0,89,0.04,,---,0.06,0.00,VWS V14.01,2013-09-12 02:54:00,
2013-09-11 21:59:00,72.0,68.6,30.02,North,5,5.0,5.0,89,0.03,,---,0.06,0.00,VWS V14.01,2013-09-12 02:59:00,
2013-09-11 22:00:00,72.0,68.6,30.02,North,5,5.0,12.0,89,0.04,,---,0.06,0.00,VWS V14.01,2013-09-12 03:00:00,
2013-09-11 22:04:00,72.1,69.0,30.02,NNE,30,5.0,8.0,90,0.03,,---,0.06,0.00,VWS V14.01,2013-09-12 03:04:00,
2013-09-11 22:09:00,72.0,68.9,30.02,NNE,22,8.0,9.0,90,0.03,,---,0.06,0.00,VWS V14.01,2013-09-12 03:09:00,
2013-09-11 22:14:00,72.0,68.9,30.02,NNE,14,5.0,9.0,90,0.03,,---,0.06,0.00,VWS V14.01,2013-09-12 03:14:00,
2013-09-11 22:19:00,72.0,68.9,30.01,NNE,31,5.0,9.0,90,0.03,,---,0.06,0.00,VWS V14.01,2013-09-12 03:19:00,
2013-09-11 22:24:00,72.0,68.9,30.01,NE,38,8.0,10.0,90,0.04,,---,0.07,0.00,VWS V14.01,2013-09-12 03:24:00,
2013-09-11 22:29:00,72.0,68.9,30.01,NNE,29,5.0,5.0,90,0.03,,---,0.07,0.00,VWS V14.01,2013-09-12 03:29:00,
2013-09-11 22:30:00,72.0,68.9,30.01,NNE,29,5.0,10.0,90,0.04,,---,0.07,0.00,VWS V14.01,2013-09-12 03:30:00,
2013-09-11 22:34:00,71.8,68.7,30.02,ENE,59,8.0,10.0,90,0.03,,---,0.07,0.00,VWS V14.01,2013-09-12 03:34:00,
2013-09-11 22:39:00,71.8,68.7,30.02,North,5,3.0,10.0,90,0.03,,---,0.07,0.00,VWS V14.01,2013-09-12 03:39:00,
2013-09-11 22:44:00,71.8,68.4,30.02,NNE,22,5.0,10.0,89,0.03,,---,0.07,0.00,VWS V14.01,2013-09-12 03:44:00,
2013-09-11 22:49:00,71.6,68.2,30.02,NE,37,3.0,10.0,89,0.03,,---,0.07,0.00,VWS V14.01,2013-09-12 03:49:00,
2013-09-11 22:54:00,71.8,68.4,30.02,NNE,31,3.0,10.0,89,0.03,,---,0.07,0.00,VWS V14.01,2013-09-12 03:54:00,
2013-09-11 22:59:00,71.6,68.2,30.02,NE,46,4.0,5.0,89,0.02,,---,0.08,0.00,VWS V14.01,2013-09-12 03:59:00,
2013-09-11 23:00:00,71.6,68.2,30.02,NE,46,4.0,10.0,89,0.04,,---,0.08,0.00,VWS V14.01,2013-09-12 04:00:00,
2013-09-11 23:01:00,71.6,68.2,30.02,NE,45,4.0,5.0,89,0.02,,---,0.08,0.00,VWS V14.01,2013-09-12 04:01:00,
2013-09-11 23:02:00,71.6,68.2,30.02,NE,45,3.0,5.0,89,0.02,,---,0.08,0.00,VWS V14.01,2013-09-12 04:02:00,
2013-09-11 23:07:00,71.6,68.2,30.02,NE,54,4.0,7.0,89,0.02,,---,0.08,0.00,VWS V14.01,2013-09-12 04:07:00,
2013-09-11 23:12:00,71.6,68.2,30.03,NE,52,3.0,8.0,89,0.02,,---,0.08,0.00,VWS V14.01,2013-09-12 04:12:00,
2013-09-11 23:17:00,71.5,68.1,30.03,North,5,2.0,8.0,89,0.02,,---,0.08,0.00,VWS V14.01,2013-09-12 04:17:00,
2013-09-11 23:22:00,71.6,68.2,30.04,North,5,4.0,8.0,89,0.02,,---,0.08,0.00,VWS V14.01,2013-09-12 04:22:00,
2013-09-11 23:27:00,71.6,68.2,30.04,WNW,299,4.0,8.0,89,0.02,,---,0.08,0.00,VWS V14.01,2013-09-12 04:27:00,
2013-09-11 23:30:00,71.6,68.2,30.04,WNW,299,5.0,8.0,89,0.02,,---,0.08,0.00,VWS V14.01,2013-09-12 04:30:00,
2013-09-11 23:32:00,71.6,68.2,30.04,NNW,331,6.0,7.0,89,0.01,,---,0.08,0.00,VWS V14.01,2013-09-12 04:32:00,
2013-09-11 23:37:00,71.6,68.5,30.03,North,5,6.0,8.0,90,0.02,,---,0.09,0.00,VWS V14.01,2013-09-12 04:37:00,
2013-09-11 23:42:00,71.5,68.4,30.02,NNE,22,6.0,10.0,90,0.02,,---,0.09,0.00,VWS V14.01,2013-09-12 04:42:00,
2013-09-11 23:47:00,71.3,68.2,30.02,NE,38,4.0,11.0,90,0.02,,---,0.09,0.00,VWS V14.01,2013-09-12 04:47:00,
2013-09-11 23:52:00,71.3,68.5,30.03,NNW,347,5.0,11.0,91,0.02,,---,0.09,0.00,VWS V14.01,2013-09-12 04:52:00,
2013-09-11 23:57:00,71.3,68.5,30.02,North,360,6.0,11.0,91,0.02,,---,0.09,0.00,VWS V14.01,2013-09-12 04:57:00,